• Join FlightAware (Why Join?)
  • Login
  • US Flag GB Flag 
03:26 EDT


 

Airport Tracker/Info


-or-


 

Live Flight TrackerFlight Track Log ✈ N328AJ ✈ 21-Dec-2013 ✈ KCMH - KAPF

Flight Track Log - Related Links

Times and Time Zones

All times are in EST time to prevent confusion due to time zone crossing. See the N328AJ flight status page for this flight to view local times or setup timezone preferences in your user account.

Time Position Orientation Groundspeed Altitude Reporting Facility
EST Latitude Longitude Course Direction KTS MPH feet Rate Location/Type
09:28 39.9536 -82.9131 164° South 160 184 3,100  Level Indianapolis Center
09:28 39.9392 -82.9075 164° South 161 185 3,600 1,620 Climbing Indianapolis Center
09:29 39.8908 -82.8900 164° South 175 201 5,300 1,500 Climbing Indianapolis Center
09:31 39.8392 -82.8728 166° South 188 216 6,700 1,380 Climbing Indianapolis Center
09:32 39.7850 -82.8667 175° South 194 223 8,200 1,200 Climbing Indianapolis Center
09:33 39.7278 -82.8650 179° South 204 235 9,200 1,020 Climbing Indianapolis Center
09:34 39.6644 -82.8625 178° South 223 257 10,300 1,020 Climbing Indianapolis Center
09:35 39.6022 -82.8597 178° South 224 258 11,400 1,020 Climbing Indianapolis Center
09:36 39.5408 -82.8553 177° South 220 253 12,500 1,140 Climbing Indianapolis Center
09:37 39.4708 -82.8525 178° South 212 244 13,800 1,080 Climbing Indianapolis Center
09:38 39.4128 -82.8500 178° South 208 239 14,800 960 Climbing Indianapolis Center
09:39 39.3542 -82.8475 178° South 210 242 15,800 960 Climbing Indianapolis Center
09:40 39.2969 -82.8450 178° South 207 238 16,800 960 Climbing Indianapolis Center
09:41 39.2417 -82.8408 177° South 202 232 17,800 900 Climbing Indianapolis Center
09:42 39.1844 -82.8386 178° South 204 235 18,700 840 Climbing Indianapolis Center
09:43 39.1211 -82.8356 178° South 207 238 19,600 780 Climbing Indianapolis Center
09:44 39.0619 -82.8328 178° South 212 244 20,400 600 Climbing Indianapolis Center
09:45 39.0022 -82.8294 178° South 214 246 20,900 480 Climbing Indianapolis Center
09:46 38.9394 -82.8275 179° South 224 258 21,400 480 Climbing Indianapolis Center
09:47 38.8592 -82.8233 178° South 239 275 22,000 480 Climbing Indianapolis Center
09:48 38.7911 -82.8197 178° South 244 281 22,500 480 Climbing Indianapolis Center
09:49 38.7203 -82.8181 179° South 252 290 23,000 480 Climbing Indianapolis Center
09:50 38.6492 -82.8136 177° South 257 296 23,500 480 Climbing Indianapolis Center
09:51 38.5692 -82.8100 178° South 260 299 24,100 480 Climbing Indianapolis Center
09:52 38.4972 -82.8078 179° South 258 297 24,600 480 Climbing Indianapolis Center
09:53 38.4258 -82.8031 177° South 255 293 25,100 480 Climbing Indianapolis Center
09:54 38.3550 -82.7994 178° South 255 293 25,600 480 Climbing Indianapolis Center
09:55 38.2847 -82.7969 178° South 253 291 26,100 480 Climbing Indianapolis Center
09:56 38.2133 -82.7931 178° South 255 293 26,600 420 Climbing Indianapolis Center
09:57 38.1311 -82.7906 179° South 252 290 27,000 180 Climbing Indianapolis Center
09:58 38.0578 -82.7867 178° South 260 299 27,000  Level Indianapolis Center
09:59 37.9814 -82.7836 178° South 271 312 27,000  Level Indianapolis Center
10:00 37.9039 -82.7794 178° South 276 318 27,000  Level Indianapolis Center
10:01 37.8269 -82.7764 178° South 276 318 27,000  Level Indianapolis Center
10:02 37.7494 -82.7733 178° South 277 319 27,000  Level Indianapolis Center
10:03 37.6586 -82.7692 178° South 278 320 27,000  Level Indianapolis Center
10:05 37.5800 -82.7656 178° South 280 322 27,000  Level Indianapolis Center
10:06 37.5011 -82.7614 178° South 283 326 27,000  Level Indianapolis Center
10:07 37.4236 -82.7586 178° South 279 321 27,000  Level Indianapolis Center
10:08 37.3453 -82.7547 178° South 279 321 27,000  Level Indianapolis Center
10:09 37.2525 -82.7503 178° South 284 327 27,000  Level Indianapolis Center
10:10 37.1739 -82.7461 178° South 282 325 27,000  Level Indianapolis Center
10:11 37.0944 -82.7425 178° South 283 326 27,000  Level Indianapolis Center
10:12 37.0156 -82.7386 178° South 281 323 27,000  Level Indianapolis Center
10:13 36.9358 -82.7339 177° South 282 325 27,000  Level Indianapolis Center
10:14 36.8561 -82.7303 178° South 282 325 27,000  Level Indianapolis Center
10:15 36.7761 -82.7269 178° South 285 328 27,000  Level Indianapolis Center
10:16 36.6969 -82.7236 178° South 282 325 27,000  Level Indianapolis Center
10:17 36.6056 -82.7194 178° South 280 322 27,000  Level Indianapolis Center
10:18 36.5281 -82.7158 178° South 279 321 27,000  Level Indianapolis Center
10:19 36.4517 -82.7136 179° South 275 316 27,000  Level Indianapolis Center
10:20 36.3744 -82.7103 178° South 276 318 27,000  Level Indianapolis Center
10:21 36.2969 -82.7069 178° South 277 319 27,000  Level Indianapolis Center
10:22 36.2200 -82.7033 178° South 275 316 27,000  Level Indianapolis Center
10:23 36.1442 -82.6994 178° South 273 314 27,000  Level Indianapolis Center
10:24 36.0406 -82.6958 178° South 277 319 27,000  Level Atlanta Center
10:25 35.9550 -82.6944 179° South 277 319 27,000  Level Atlanta Center
10:26 35.8778 -82.6881 176° South 277 319 27,000  Level Atlanta Center
10:27 35.8025 -82.6869 179° South 277 319 27,000  Level Atlanta Center
10:28 35.7253 -82.6831 178° South 277 319 27,000  Level Atlanta Center
10:29 35.6461 -82.6792 178° South 282 325 27,000  Level Atlanta Center
10:30 35.5667 -82.6753 178° South 282 325 27,000  Level Atlanta Center
10:31 35.4853 -82.6742 179° South 287 330 27,100 300 Climbing Atlanta Center
10:32 35.4122 -82.6678 176° South 287 330 27,600 420 Climbing Atlanta Center
10:33 35.3372 -82.6692 181° South 282 325 28,000 240 Climbing Atlanta Center
10:34 35.2619 -82.6600 174° South 277 319 28,100  Climbing Atlanta Center
10:35 35.1869 -82.6614 181° South 272 313 28,000 -60 Descending Atlanta Center
10:36 35.1075 -82.6575 178° South 277 319 28,000  Level Atlanta Center
10:37 35.0469 -82.6511 175° South 277 319 28,000  Level Atlanta Center
10:38 34.9550 -82.6500 179° South 272 313 28,000  Level Atlanta Center
10:39 34.8778 -82.6461 178° South 272 313 28,000  Level Atlanta Center
10:40 34.8028 -82.6425 178° South 272 313 28,000  Level Atlanta Center
10:41 34.7275 -82.6411 179° South 272 313 28,000  Level Atlanta Center
10:42 34.6461 -82.6350 176° South 277 319 28,000  Level Atlanta Center
10:43 34.5689 -82.6311 178° South 282 325 28,000  Level Atlanta Center
10:44 34.4958 -82.6275 178° South 277 319 28,000  Level Atlanta Center
10:45 34.4289 -82.6258 179° South 268 308 28,000  Level Atlanta Center
10:46 34.3539 -82.6222 178° South 273 314 28,000  Level Atlanta Center
10:47 34.2806 -82.6183 177° South 273 314 28,000  Level Atlanta Center
10:48 34.2033 -82.6172 179° South 278 320 28,000  Level Atlanta Center
10:49 34.1283 -82.6158 179° South 271 312 28,000  Level Atlanta Center
10:50 34.0511 -82.6122 178° South 271 312 28,000  Level Atlanta Center
10:51 33.9717 -82.6086 178° South 271 312 28,000  Level Atlanta Center
10:52 33.8903 -82.6047 178° South 276 318 28,000  Level Atlanta Center
10:53 33.8192 -82.6011 178° South 270 311 28,000  Level Atlanta Center
10:54 33.7378 -82.6000 179° South 270 311 28,000  Level Atlanta Center
10:55 33.6667 -82.5961 177° South 270 311 28,000  Level Atlanta Center
10:56 33.5917 -82.5950 179° South 270 311 28,000  Level Atlanta Center
10:57 33.5144 -82.5886 176° South 270 311 28,000  Level Atlanta Center
10:58 33.4372 -82.5900 181° South 270 311 28,000  Level Atlanta Center
10:59 33.3639 -82.5864 178° South 270 311 28,000  Level Atlanta Center
11:00 33.2889 -82.5800 176° South 270 311 28,000  Level Atlanta Center
11:01 33.2136 -82.5789 179° South 270 311 28,000  Level Atlanta Center
11:02 33.1383 -82.5728 176° South 270 311 28,000  Level Atlanta Center
11:03 33.0611 -82.5689 178° South 270 311 28,000  Level Atlanta Center
11:04 32.9881 -82.5678 179° South 275 316 28,000  Level Atlanta Center
11:05 32.9108 -82.5667 179° South 275 316 28,000  Level Atlanta Center
11:06 32.8356 -82.5606 176° South 275 316 28,000  Level Atlanta Center
11:07 32.7583 -82.5592 179° South 275 316 28,000  Level Atlanta Center
11:08 32.6831 -82.5531 176° South 275 316 28,000  Level Atlanta Center
11:11 32.5042 -82.5453 178° South 277 319 28,000  Level Jacksonville Center
11:12 32.4311 -82.5431 179° South 271 312 28,000  Level Jacksonville Center
11:13 32.3478 -82.5383 177° South 271 312 28,000  Level Jacksonville Center
11:14 32.2725 -82.5364 179° South 271 312 28,000  Level Jacksonville Center
11:15 32.1972 -82.5342 179° South 271 312 28,000  Level Jacksonville Center
11:16 32.1222 -82.5294 177° South 271 312 28,000  Level Jacksonville Center
11:17 32.0469 -82.5275 179° South 271 312 28,000  Level Jacksonville Center
11:18 31.9719 -82.5253 179° South 271 312 28,000  Level Jacksonville Center
11:19 31.8944 -82.5231 179° South 271 312 28,000  Level Jacksonville Center
11:20 31.8214 -82.5183 177° South 271 312 28,000  Level Jacksonville Center
11:21 31.7422 -82.5164 179° South 271 312 28,000  Level Jacksonville Center
11:22 31.6669 -82.5142 179° South 271 312 28,000  Level Jacksonville Center
11:23 31.5917 -82.5097 177° South 271 312 28,000  Level Jacksonville Center
11:24 31.5167 -82.5025 175° South 271 312 28,000  Level Jacksonville Center
11:25 31.4414 -82.4811 166° South 276 318 28,000  Level Jacksonville Center
11:26 31.3661 -82.4594 166° South 276 318 28,000  Level Jacksonville Center
11:27 31.2992 -82.4478 172° South 276 318 28,000  Level Jacksonville Center
11:28 31.2239 -82.4236 165° South 276 318 28,000  Level Jacksonville Center
11:29 31.1489 -82.4047 168° South 276 318 28,000  Level Jacksonville Center
11:30 31.0756 -82.3808 164° South 282 325 28,000  Level Jacksonville Center
11:31 30.9983 -82.3619 168° South 282 325 28,000  Level Jacksonville Center
11:32 30.9147 -82.3381 166° South 277 319 28,000  Level Jacksonville Center
11:33 30.8414 -82.3167 166° South 277 319 28,000  Level Jacksonville Center
11:34 30.7661 -82.2956 166° South 277 319 28,000  Level Jacksonville Center
11:35 30.6908 -82.2742 166° South 277 319 28,000  Level Jacksonville Center
11:36 30.6156 -82.2528 166° South 277 319 28,000  Level Jacksonville Center
11:37 30.5403 -82.2294 165° South 277 319 28,000  Level Jacksonville Center
11:38 30.4650 -82.2081 166° South 282 325 28,000  Level Jacksonville Center
11:39 30.3897 -82.1869 166° South 282 325 28,000  Level Jacksonville Center
11:40 30.3144 -82.1658 166° South 282 325 28,000  Level Jacksonville Center
11:41 30.2392 -82.1447 166° South 282 325 28,000  Level Jacksonville Center
11:42 30.1639 -82.1261 168° South 282 325 28,000  Level Jacksonville Center
11:43 30.0867 -82.1100 170° South 282 325 28,000  Level Jacksonville Center
11:44 30.0094 -82.1011 174° South 282 325 28,000  Level Jacksonville Center
11:45 29.9319 -82.0850 170° South 282 325 28,000  Level Jacksonville Center
11:46 29.8567 -82.0686 169° South 277 319 28,000 -60 Level Jacksonville Center
11:47 29.7814 -82.0525 169° South 277 319 27,900 -360 Descending Jacksonville Center
11:48 29.7000 -82.0342 169° South 282 325 27,300 -540 Descending Jacksonville Center
11:49 29.6206 -82.0206 172° South 287 330 26,900 -180 Descending Jacksonville Center
11:50 29.5411 -82.0069 172° South 293 337 27,000  Climbing Jacksonville Center
11:51 29.4636 -81.9908 170° South 293 337 27,000  Level Jacksonville Center
11:52 29.3864 -81.9772 171° South 293 337 27,000  Level Jacksonville Center
11:53 29.3111 -81.9589 168° South 288 331 27,000  Level Jacksonville Center
11:54 29.2339 -81.9456 171° South 288 331 27,000  Level Jacksonville Center
11:55 29.1586 -81.9272 168° South 288 331 27,000  Level Jacksonville Center
11:56 29.0894 -81.9136 170° South 283 326 27,000  Level Jacksonville Center
11:58 28.9117 -81.8803 171° South 286 329 27,000  Level Miami Center
11:59 28.8350 -81.8672 172° South 270 311 27,000 -60 Level Miami Center
12:00 28.7603 -81.8519 170° South 287 330 26,900 -300 Descending Miami Center
12:01 28.6817 -81.8342 169° South 295 339 26,400 -540 Descending Miami Center
12:02 28.6008 -81.8189 171° South 290 334 25,900 -480 Descending Miami Center
12:03 28.5347 -81.8042 169° South 300 345 25,500 -600 Descending Miami Center
12:04 28.4356 -81.7761 166° South 300 345 24,700 -780 Descending Miami Center
12:05 28.3528 -81.7536 167° South 300 345 24,000 -360 Descending Miami Center
12:06 28.2806 -81.7317 165° South 311 358 24,000  Level Miami Center
12:07 28.2042 -81.7094 166° South 300 345 24,000 -420 Level Miami Center
12:08 28.1236 -81.6847 165° South 295 339 23,200 -900 Descending Miami Center
12:09 28.0406 -81.6694 171° South 301 346 22,300 -1,020 Descending Miami Center
12:10 27.9500 -81.6986 196° South 301 346 21,200 -1,020 Descending Miami Center
12:11 27.8658 -81.7139 189° South 301 346 20,300 -840 Descending Miami Center
12:12 27.7894 -81.6942 167° South 301 346 19,600 -840 Descending Miami Center
12:13 27.6983 -81.6692 166° South 312 359 18,700 -900 Descending Miami Center
12:14 27.6178 -81.6494 168° South 312 359 17,900 -900 Descending Miami Center
12:15 27.5308 -81.6269 167° South 317 365 16,900 -1,080 Descending Miami Center
12:16 27.4503 -81.6025 165° South 317 365 15,800 -1,200 Descending Miami Center
12:17 27.3653 -81.5803 167° South 317 365 14,600 -1,200 Descending Miami Center
12:18 27.2825 -81.5583 167° South 317 365 13,400 -1,260 Descending Miami Center
12:19 27.2019 -81.5364 166° South 317 365 12,100 -1,320 Descending Miami Center
12:20 27.1211 -81.5144 166° South 312 359 10,800 -1,320 Descending Miami Center
12:21 27.0425 -81.4950 168° South 306 352 9,500 -900 Descending Miami Center
12:22 26.9786 -81.4644 157° South 284 327 9,100 -300 Descending Miami Center
12:23 26.9089 -81.4314 157° South 278 320 8,900 -360 Descending Miami Center
12:24 26.8381 -81.4194 171° South 260 299 8,400 -480 Descending Miami Center
12:25 26.7744 -81.4589 209° Southwest 241 277 8,000 -240 Descending Miami Center
12:26 26.7106 -81.4911 204° Southwest 258 297 8,000  Level Miami Center
12:27 26.6469 -81.5233 204° Southwest 258 297 8,000  Level Miami Center
12:28 26.5833 -81.5533 203° Southwest 258 297 8,000 -540 Level Miami Center
12:29 26.5219 -81.5836 204° Southwest 253 291 7,000 -1,140 Descending Miami Center
12:30 26.4622 -81.6158 206° Southwest 248 285 5,800 -1,200 Descending Miami Center
12:33 26.2959 -81.6963 203° Southwest  Level FlightAware Approximate
12:40 26.1500 -81.7667 205° Southwest  Level FlightAware Approximate
12:41 26.1524 -81.7756 205° Southwest  Level Estimated
12:42 26.1524 -81.7756 205° Southwest  Level Estimated
12:43 26.1524 -81.7756 205° Southwest  Level Estimated
12:44 26.1524 -81.7756 205° Southwest  Level Estimated
12:45 26.1524 -81.7756 205° Southwest  Level Estimated
12:46 26.1524 -81.7756 205° Southwest  Level Estimated